Kezdőlap
METAR-TAF:

METAR-TAF

Repülőterek :

Fremont Municipal Airport

Fremont, Nebraska, Amerikai Egyesült Államok

földrajzi szélesség: 41-27N, földrajzi hosszúság: 096-31W, magasság: 379 m

Jelenlegi meteorológiai megfigyelések

A jelentés 33 perccel ezelõtt készült, 10:55 UTC
Dél-délkeleti szél 6 kt
Hőmérséklet 19°C
Páratartalom 60%
Légköri nyomás 1012 hPa
Látótávolság: 16.1 km
Derült ég

METAR: KFET 171055Z AUTO 15006KT 10SM CLR 19/11 A2988 RMK AO2 T01920111

Idő: 06:28 (11:28 UTC)


TAF: hiányzik

Meteorológiai megfigyelések és előrejelzések több, mint 4000 repülőtéren (METAR és TAF jelentéseket).

A térképen piros és sárga pontok jelzik az elérhető meteorológiai állomásokat.

Mozgassa az egeret a pont fölött, hogy megjelenjen az állomás neve.

Azután kattintson az időjárási megfigyelések és előrejelzések megtekintéséhez.

A térkép megváltoztatása: kattintson a fekete keresztel jelölt zöld gombra ráközelítéshez, a vonallal jelölt zöld gombra távolításhoz, vagy a zöld nyilakra a szomszédos térképek eléréséhez.


METAR-TAF: